RH
91 91 90 88 87 91 90 73 78 38 39 66 72 85 97 67 64 65 81 74 72 77 95 87 64 48 40 40 37 38 31 38 82 63 41 39 39 41 41 68 53 66 78 66
87 92 93 90 90 90 97 99 66 42 41 84 79 69 55 51 66 79 99 95 92 90 96 100 86 46 46 44 49 68 60 47 63 64 53 44 52 43 36 36 41 60 72 56
76 79 82 86 96 92 95 100 91 45 41 49 67 79 57 54 42 74 83 87 72 87 90 75 100 70 54 50 57 69 60 54 45 53 47 52 58 48 42 39 59 48 49 41
84 90 88 84 89 93 99 100 89 49 71 54 66 65 62 59 52 81 66 88 71 93 94 79 90 96 94 70 62 68 83 92 61 57 46 46 45 49 47 48 42 55 44 41
83 90 89 88 91 95 97 100 97 66 64 55 58 59 60 46 56 46 53 58 51 64 96 89 96 94 79 93 88 69 86 96 71 70 54 49 52 49 46 45 43 44 41 42
81 88 93 94 95 97 97 99 97 98 78 59 60 60 47 46 42 40 35 40 49 54 54 43 47 49 68 87 98 99 92 96 84 80 65 61 77 60 54 47 43 42 52 39
85 84 82 85 84 88 98 99 100 99 93 66 58 46 42 44 45 52 41 36 42 43 37 44 56 60 56 62 93 96 97 92 94 90 83 94 60 38 40 44 40 40 41 39
90 91 88 81 80 82 98 97 100 100 94 64 57 51 46 43 44 43 46 36 33 30 57 81 78 74 97 87 82 90 84 93 99 98 96 76 66 50 49 54 54 41 42 40
89 88 91 92 80 81 100 100 100 100 98 76 52 55 48 65 63 58 43 35 32 39 73 89 96 90 82 95 96 89 89 76 90 99 96 91 57 40 37 44 65 44 45 42
88 90 94 92 90 79 85 99 98 99 100 72 59 67 65 48 62 70 55 50 55 45 78 92 84 81 63 92 96 97 94 97 97 92 87 73 54 48 42 78 60 40 42 46
90 90 86 92 92 86 84 89 100 99 100 86 64 52 61 62 62 79 61 71 52 74 95 95 92 95 91 96 87 97 97 97 97 97 98 91 48 49 52 45 43 43 50 53
94 91 85 90 92 92 87 85 92 100 99 88 80 84 73 62 56 66 66 72 68 68 89 86 91 83 84 86 91 93 96 94 97 97 96 79 48 54 48 50 40 44 58 59
93 89 85 92 91 90 93 92 90 99 97 92 92 80 68 71 70 63 79 74 59 57 55 86 96 97 86 96 75 68 94 100 79 94 69 69 53 54 47 51 47 51 57 55
93 88 93 94 93 91 92 97 91 100 100 99 75 48 55 53 57 61 66 68 60 60 73 90 98 92 66 90 96 84 70 65 70 69 64 76 57 74 74 65 50 56 54 54
89 94 96 97 94 94 89 80 96 98 99 98 93 71 46 48 49 51 50 62 72 85 92 97 96 82 74 85 83 85 91 93 91 84 78 93 82 76 72 73 61 58 59 56
96 98 96 95 95 95 87 82 89 96 91 98 98 82 70 73 78 65 59 60 68 94 98 96 91 67 78 100 94 75 61 56 61 90 81 86 85 83 84 78 78 66 72 66
95 97 94 95 92 91 84 89 88 80 95 96 94 93 92 85 85 88 93 86 96 89 98 97 85 72 88 98 95 84 67 65 70 67 82 83 82 90 94 86 79 75 78 72
93 94 91 88 81 82 95 94 94 100 90 97 89 91 95 94 97 98 99 99 100 99 98 99 95 93 94 97 85 74 72 80 80 79 81 88 87 92 95 96 86 82 83 79
95 96 79 82 84 90 92 79 77 89 99 97 96 97 97 95 93 95 99 100 99 99 98 96 93 94 95 94 92 86 89 95 93 88 86 84 96 96 96 95 95 94 96 95
87 87 80 96 92 99 91 91 96 100 100 99 98 97 96 85 94 93 93 97 98 97 97 96 95 95 89 93 92 93 93 93 93 94 87 90 96 95 95 96 95 95 95 95
86 97 91 87 77 95 99 95 94 94 95 93 96 95 94 86 96 97 94 97 98 96 96 91 96 92 91 92 93 93 93 92 94 95 95 95 96 95 95 95 94 93 93 93
96 99 97 91 96 92 82 93 88 92 97 93 96 94 87 94 95 98 98 97 94 96 91 88 96 90 92 92 93 93 94 94 94 94 95 94 93 93 92 94 94 94 94 95
93 98 95 91 89 80 89 97 89 93 96 95 92 89 96 94 97 98 95 93 96 90 90 96 96 92 90 93 93 92 93 93 93 94 94 94 93 94 93 94 95 95 95 96
92 93 83 92 92 94 96 98 99 94 95 93 94 96 98 97 96 96 94 97 84 90 93 97 95 94 94 93 93 93 94 94 94 94 94 94 93 94 95 95 96 95 94 96
91 87 89 95 91 93 92 92 94 93 97 95 96 96 98 96 94 95 92 84 98 98 98 96 94 94 94 93 93 94 94 94 94 94 94 94 94 93 94 96 96 96 96 96
91 92 94 89 93 96 94 93 95 94 91 97 98 98 91 97 94 87 100 89 99 98 96 94 94 94 94 94 94 94 94 94 94 94 95 95 94 94 96 96 96 96 96 96
88 94 88 96 86 96 93 90 89 74 97 98 97 94 100 92 91 96 97 99 97 95 94 94 95 95 95 94 94 94 95 94 95 95 96 95 92 91 93 95 98 93 87 85
Wind_Speed
40 38 37 35 33 30 18 6 4 9 28 7 4 4 6 17 14 15 7 15 16 17 23 9 12 19 20 6 8 21 22 4 5 8 1 12 11 8 9 4 5 5 4 5
42 40 37 35 33 28 18 3 5 12 15 4 6 9 11 10 13 13 7 7 14 25 13 6 11 6 1 4 6 3 5 8 5 4 2 2 7 11 13 12 4 7 6 4
42 42 38 37 33 28 26 2 3 3 2 1 4 7 11 15 11 5 9 10 11 18 19 16 6 7 3 5 5 12 13 6 13 9 4 8 7 14 20 16 6 11 11 2
44 45 37 34 33 28 19 2 3 4 3 6 8 8 10 14 16 2 7 4 17 14 10 15 12 12 14 12 7 5 6 5 5 9 8 3 3 11 19 21 21 9 8 14
45 43 34 31 31 28 14 3 3 2 6 9 12 9 9 13 11 14 11 12 17 12 8 13 18 19 13 10 9 4 8 4 5 6 12 2 3 6 13 20 19 17 15 15
40 42 36 33 34 27 7 8 7 4 6 4 6 9 11 10 12 6 13 14 16 16 15 16 18 19 19 16 13 6 6 4 3 5 3 9 4 13 11 7 7 15 15 19
38 38 37 36 36 33 19 8 4 2 2 7 8 11 13 14 13 13 10 15 14 10 17 19 17 18 20 17 17 15 6 7 3 5 2 10 7 3 13 18 16 15 7 7
37 37 36 36 35 38 25 21 4 2 3 7 12 14 11 12 12 11 15 12 10 13 12 7 9 5 3 5 13 17 9 4 3 4 6 5 7 4 7 9 11 14 14 12
40 40 37 33 33 34 22 13 17 1 1 5 12 12 11 7 10 10 9 11 8 10 3 4 3 2 3 4 7 14 13 12 7 3 3 5 3 9 9 5 11 8 10 15
39 40 38 36 30 30 31 12 12 2 2 5 7 5 5 3 6 7 10 8 14 4 2 3 3 3 2 4 6 6 11 9 12 12 7 5 7 7 16 4 6 5 1 1
38 38 41 36 30 25 25 21 14 8 3 5 7 9 8 6 6 7 7 6 1 4 3 3 5 4 4 4 5 3 5 5 5 6 6 9 3 4 6 3 1 1 3 3
38 37 41 38 29 23 21 10 15 19 4 5 10 16 17 17 17 10 4 6 5 3 3 3 3 4 2 4 4 3 2 2 3 5 5 13 13 13 7 1 2 3 6 7
38 35 39 35 29 25 18 13 13 7 6 6 6 10 25 28 27 21 6 3 5 4 3 3 3 4 2 3 3 5 7 1 4 5 8 18 21 9 11 8 7 4 7 16
38 38 40 37 32 26 19 13 15 10 2 2 3 7 9 11 15 22 26 17 12 5 2 2 2 3 4 3 3 3 4 8 4 8 10 15 6 12 16 16 4 5 2 8
41 44 43 36 28 22 17 15 8 5 0 3 5 11 13 8 13 16 18 14 11 6 3 5 3 3 4 4 2 2 7 7 5 3 13 10 15 19 20 16 7 6 8 7
46 45 41 30 20 13 3 1 2 4 3 3 4 6 6 9 9 8 7 9 9 4 3 3 3 6 4 3 1 8 13 11 10 6 18 15 19 16 14 14 7 4 4 10
46 42 30 24 11 4 1 0 3 7 1 2 4 4 1 4 3 2 2 6 4 6 3 5 4 7 3 1 5 21 20 19 18 12 15 6 10 12 14 8 6 5 7 10
45 30 21 12 6 2 1 2 7 7 3 1 3 4 3 7 2 3 2 2 3 4 3 2 2 4 5 4 17 16 17 19 13 17 16 15 17 11 4 4 4 8 9 9
33 23 5 3 5 4 5 19 18 11 5 2 2 2 3 4 2 3 2 2 2 1 4 4 4 4 7 12 20 19 17 13 17 19 18 15 7 4 2 2 5 9 8 8
20 13 6 3 5 19 9 2 2 2 1 1 2 2 3 4 3 3 3 2 2 3 4 3 3 3 6 13 14 13 15 15 15 15 13 11 2 2 6 8 8 10 10 11
11 6 3 12 16 4 2 3 4 4 2 4 3 4 5 3 4 3 2 3 3 3 4 3 3 4 15 17 15 14 14 13 12 10 9 9 6 4 9 10 11 13 14 14
12 15 12 6 4 3 4 3 4 4 4 5 4 5 5 4 3 3 2 3 3 4 2 3 3 7 16 16 17 16 14 14 13 12 10 10 11 12 11 12 11 14 18 21
3 1 2 3 3 7 5 6 5 4 5 4 7 9 3 4 3 2 4 5 4 1 3 3 2 10 13 14 14 16 16 18 14 14 16 19 19 22 21 12 18 21 22 21
3 3 6 3 3 2 2 1 3 3 3 7 7 4 2 3 3 3 4 3 3 4 4 3 4 12 12 12 11 11 14 15 15 14 15 14 16 19 23 22 21 20 19 18
2 2 1 2 1 1 1 1 3 3 2 4 3 4 2 3 3 3 3 4 4 4 2 3 7 10 10 10 11 11 11 10 9 12 11 14 16 18 21 23 21 19 19 19
3 6 4 4 2 2 3 2 3 2 5 2 2 3 3 4 3 5 5 3 3 2 3 4 6 8 8 8 8 8 11 13 14 16 17 18 18 17 17 21 21 20 18 17
3 3 3 2 0 1 2 2 3 9 3 2 2 5 2 3 3 3 4 3 2 5 5 3 5 7 7 7 7 10 10 11 13 14 16 15 17 19 18 13 16 18 17 16
Wind_Direction
327 324 323 319 318 319 312 283 277 286 312 309 289 292 21 314 322 329 309 306 283 299 278 287 251 203 215 82 291 195 208 231 165 199 46 218 210 202 194 150 210 209 162 260
329 326 322 319 317 314 301 260 268 294 263 281 324 307 322 318 344 342 342 319 355 341 283 250 258 238 61 41 90 40 359 206 240 128 109 350 220 212 222 238 304 201 157 244
334 330 328 326 318 311 306 209 274 272 287 281 277 350 327 331 320 331 335 310 8 352 316 353 296 323 32 16 51 71 32 280 220 209 194 144 194 205 210 211 223 231 233 247
336 333 326 323 323 322 320 193 243 263 277 290 318 307 303 309 322 5 342 309 1 352 323 325 358 337 343 300 108 62 106 278 347 328 346 104 203 206 207 212 223 201 190 216
341 344 337 331 327 322 298 233 209 304 266 279 289 299 284 311 352 336 327 317 330 325 290 305 307 314 316 294 9 126 158 220 352 311 333 337 259 279 208 219 228 242 263 264
343 351 352 346 338 330 272 228 246 164 232 261 271 268 286 298 310 286 309 306 312 309 300 305 290 280 269 255 277 254 167 158 137 261 340 300 265 233 236 236 209 215 227 234
342 344 346 344 348 345 322 294 315 214 207 229 247 276 293 299 312 307 305 305 318 302 306 301 283 267 261 246 244 244 191 184 140 259 83 247 245 212 222 226 229 222 245 207
339 339 340 339 341 346 324 309 206 182 226 239 270 275 274 310 297 315 305 300 319 307 317 298 299 307 323 246 231 220 205 146 180 209 185 331 294 238 196 177 242 227 232 235
337 340 338 334 340 344 338 316 230 228 114 246 252 276 272 297 303 293 292 323 309 326 301 284 274 309 248 322 300 204 197 206 200 162 201 212 245 243 221 66 280 249 213 234
337 341 338 336 336 341 345 313 216 182 247 242 261 256 267 272 308 279 297 304 312 290 228 259 242 252 329 321 309 346 216 201 207 213 228 270 232 161 119 167 256 298 313 181
332 335 338 335 335 337 341 313 261 208 243 278 265 259 248 253 254 270 291 333 316 303 269 291 9 1 13 279 293 360 308 205 188 210 219 245 31 25 171 168 169 93 62 72
331 332 334 334 333 332 339 323 324 238 238 258 295 280 269 259 258 267 266 253 300 295 349 357 320 302 267 268 290 206 355 7 318 42 311 340 335 334 333 320 171 176 118 114
329 330 330 328 331 332 326 308 319 280 266 269 250 259 262 251 248 246 248 236 203 230 233 294 242 264 270 277 297 338 21 226 306 344 348 318 315 312 349 351 334 339 126 139
328 328 326 324 321 321 321 305 304 282 290 278 278 298 242 257 240 231 223 246 275 296 8 283 251 249 260 257 327 300 303 264 322 283 316 327 342 22 357 328 15 37 15 130
328 330 327 322 317 315 311 308 300 305 316 316 289 299 294 289 278 248 237 231 241 248 250 227 240 275 255 227 239 50 355 8 346 313 344 329 297 321 338 335 319 175 139 111
330 332 331 326 317 313 321 244 3 14 17 323 310 321 309 357 349 285 236 247 244 215 210 215 229 229 279 286 212 31 356 344 340 299 305 296 286 302 355 323 311 332 107 136
332 336 334 334 329 283 181 161 358 338 284 325 308 309 307 342 307 316 255 238 217 215 226 214 230 241 270 273 25 342 334 329 320 304 340 321 357 314 325 338 350 77 90 113
333 334 336 355 45 80 286 85 27 315 289 89 285 277 326 6 311 285 228 255 198 216 216 207 185 37 4 63 345 336 329 325 311 335 319 293 291 292 330 350 16 76 83 105
333 335 344 345 18 14 291 299 283 283 212 269 244 295 311 339 305 261 276 243 256 207 24 34 46 34 40 331 330 334 332 322 307 313 309 306 290 311 335 82 78 87 87 90
345 5 356 360 342 315 314 38 -0 127 208 208 256 332 322 12 321 284 328 281 303 31 48 81 72 102 11 349 334 323 325 322 325 327 336 325 317 3 74 73 81 91 92 92
4 354 337 308 323 313 6 356 36 337 25 3 353 62 346 301 296 288 282 323 338 46 13 58 58 18 350 347 346 340 337 337 338 340 354 9 32 43 71 77 85 96 104 107
303 291 302 294 328 359 54 3 353 23 345 -0 1 335 306 290 268 268 347 329 34 50 22 55 42 352 343 347 348 348 352 358 1 8 22 38 53 64 78 76 75 84 93 95
9 277 302 26 326 31 55 337 319 344 351 4 348 330 308 302 266 298 22 28 33 29 40 58 55 341 345 349 353 353 358 9 14 18 26 41 52 57 62 67 68 74 73 80
68 13 343 77 13 41 17 333 294 295 327 334 327 273 286 296 356 351 31 40 12 57 42 27 358 344 341 348 354 360 360 3 14 17 22 36 47 53 55 57 61 68 68 71
65 46 348 56 153 102 64 34 338 338 351 337 309 266 224 335 43 14 359 34 61 43 33 337 336 337 339 350 358 -0 2 4 9 17 31 36 48 54 50 45 55 65 72 75
46 31 3 344 62 355 11 357 303 15 324 271 208 275 30 34 68 46 10 42 46 10 336 333 335 338 345 349 354 357 2 8 13 16 26 34 38 45 54 54 51 54 62 67
48 51 56 305 37 350 357 356 341 323 301 349 2 48 283 305 45 48 15 37 1 327 320 342 347 342 347 347 358 4 10 17 18 24 30 36 48 55 52 48 46 63 71 80